This is the latest recevied weather packets stored in our database for station/object N7MLR. If no packets are shown the sender has not sent any weather packets the latest 10 day(s).
| Time | Temp. | Humidity | Pressure | Rain* | Wind** | Luminosity | Snow |
|---|---|---|---|---|---|---|---|
| 1777948914 | 22.22° C | 83% | 1009.4 hPa | 0 mm | - | 0 W/m² | - |
| 1777948612 | 22.22° C | 82% | 1009.6 hPa | 0 mm | - | 0 W/m² | - |
| 1777948309 | 22.22° C | 82% | 1009.4 hPa | 0 mm | - | 0 W/m² | - |
| 1777948006 | 22.22° C | 81% | 1009.3 hPa | 0 mm | - | 0 W/m² | - |
| 1777947703 | 22.22° C | 81% | 1009.6 hPa | 0 mm | - | 0 W/m² | - |
| 1777947399 | 22.22° C | 81% | 1009.3 hPa | 0 mm | - | 0 W/m² | - |
| 1777947097 | 22.78° C | 80% | 1009.2 hPa | 0 mm | - | 0 W/m² | - |
| 1777946792 | 22.78° C | 79% | 1009.4 hPa | 0 mm | - | 0 W/m² | - |
| 1777946488 | 22.78° C | 79% | 1009.4 hPa | 0 mm | - | 0 W/m² | - |
| 1777946186 | 22.78° C | 78% | 1009 hPa | 0 mm | - | 0 W/m² | - |
| 1777945882 | 22.78° C | 78% | 1009.2 hPa | 0 mm | - | 0 W/m² | - |
| 1777945579 | 22.78° C | 78% | 1009.1 hPa | 0 mm | - | 0 W/m² | - |
| 1777945276 | 22.78° C | 77% | 1009.2 hPa | 0 mm | - | 0 W/m² | - |
| 1777944974 | 23.33° C | 76% | 1009.2 hPa | 0 mm | - | 0 W/m² | - |
| 1777944670 | 23.33° C | 75% | 1009.1 hPa | 0 mm | - | 0 W/m² | - |
| 1777944369 | 23.89° C | 74% | 1009.1 hPa | 0 mm | - | 0 W/m² | - |
| 1777944065 | 25° C | 71% | 1008.9 hPa | 0 mm | - | 0 W/m² | - |
| 1777943761 | 25° C | 70% | 1009 hPa | 0 mm | - | 0 W/m² | - |
| 1777943458 | 25° C | 70% | 1009 hPa | 0 mm | - | 1 W/m² | - |
| 1777943153 | 25.56° C | 69% | 1009 hPa | 0 mm | - | 3 W/m² | - |
| 1777942850 | 24.44° C | 71% | 1008.9 hPa | 0 mm | - | 6 W/m² | - |
| 1777942546 | 24.44° C | 72% | 1009.2 hPa | 0 mm | - | 9 W/m² | - |
| 1777942244 | 25° C | 71% | 1009 hPa | 0 mm | - | 13 W/m² | - |
| 1777941941 | 25° C | 70% | 1009 hPa | 0 mm | - | 15 W/m² | - |
| 1777941638 | 25° C | 69% | 1008.8 hPa | 0 mm | - | 19 W/m² | - |
* Rain latest hour (hover to see other rain measurements)
** Current wind speed in m/s (hover to see current wind gust speed)